Change the Weather History Date:

Saturday, November 3, 2012

  Actual Average Record
Temperature  
Mean Temperature 42 °F 36 °F  
Max Temperature 53 °F 46 °F 59 °F (1999)
Min Temperature 30 °F 26 °F 7 °F (2002)
Degree Days  
Heating Degree Days 23 29  
Month to date heating degree days 60 86  
Since 1 July heating degree days 871 1139  
Cooling Degree Days 0 0  
Month to date cooling degree days 0 0  
Year to date cooling degree days 346 162  
Moisture  
Dew Point 23 °F    
Average Humidity 54    
Maximum Humidity 78    
Minimum Humidity 30    
Precipitation  
Precipitation 0.00 in 0.05 in 0.10 in (2003)
Month to date precipitation 0.00 0.16  
Year to date precipitation 5.03 10.67  
Sea Level Pressure  
Sea Level Pressure 30.20 in    
Wind  
Wind Speed 7 mph (SW)    
Max Wind Speed 17 mph    
Max Gust Speed 22 mph    
Visibility 10 miles    
Events      
T = Trace of Precipitation, MM = Missing Value Source: NWS Daily Summary

Daily Weather History Graph

Daily Weather History Graph

Search for Another Location

Airport or City:

Trip Planner

Search our weather history database for the weather conditions in past years. The results will help you decide how hot, cold, wet, or windy it might be!

Date:

Astronomy

Nov. 03, 2012 Rise Set
Actual Time 7:58 AM MDT 6:16 PM MDT
Civil Twilight 7:29 AM MDT 6:45 PM MDT
Nautical Twilight 6:56 AM MDT 7:17 PM MDT
Astronomical Twilight 6:24 AM MDT 7:50 PM MDT
Moon 9:59 PM MDT (11/3) 12:06 PM MDT (11/3)
Length of Visible Light 11h 15m
Length of Day
10h 17m
Waning Gibbous, 80% of the Moon is Illuminated
Nov 3
Waning Gibbous
Nov 6
Last Quarter
Nov 13
New
Nov 20
First Quarter
Nov 28
Full

Hourly Weather History & Observations

Time (MDT) Temp. Windchill Dew Point Humidity Pressure Visibility Wind Dir Wind Speed Gust Speed Precip Events Conditions
12:53 AM 34.0 °F 29.8 °F 24.1 °F 67% 30.12 in 10.0 mi East 4.6 mph - N/A   Clear
1:53 AM 35.1 °F 32.2 °F 24.1 °F 64% 30.11 in 10.0 mi ESE 3.5 mph - N/A   Clear
2:53 AM 32.0 °F - 23.0 °F 69% 30.13 in 10.0 mi Calm Calm - N/A   Clear
3:53 AM 30.9 °F 27.5 °F 23.0 °F 72% 30.14 in 10.0 mi SSE 3.5 mph - N/A   Clear
4:53 AM 33.1 °F 28.7 °F 24.1 °F 70% 30.12 in 10.0 mi SW 4.6 mph - N/A   Clear
5:53 AM 32.0 °F - 24.1 °F 73% 30.16 in 10.0 mi Calm Calm - N/A   Clear
6:53 AM 33.1 °F 30.0 °F 24.1 °F 70% 30.19 in 10.0 mi South 3.5 mph - N/A   Clear
7:53 AM 30.9 °F 25.2 °F 23.0 °F 72% 30.21 in 10.0 mi South 5.8 mph - N/A   Clear
8:53 AM 30.9 °F 26.2 °F 25.0 °F 79% 30.24 in 10.0 mi SSW 4.6 mph - N/A   Clear
9:53 AM 36.0 °F 31.1 °F 26.1 °F 67% 30.24 in 10.0 mi SW 5.8 mph - N/A   Clear
10:53 AM 42.1 °F 37.1 °F 27.0 °F 55% 30.23 in 10.0 mi SW 8.1 mph - N/A   Clear
11:53 AM 46.0 °F 43.9 °F 23.0 °F 40% 30.22 in 10.0 mi Variable 4.6 mph - N/A   Clear
12:53 PM 48.0 °F - 21.9 °F 36% 30.22 in 10.0 mi Variable 4.6 mph - N/A   Clear
1:53 PM 52.0 °F - 21.0 °F 30% 30.17 in 10.0 mi West 10.4 mph 18.4 mph N/A   Clear
2:53 PM 52.0 °F - 21.0 °F 30% 30.18 in 10.0 mi West 12.7 mph 19.6 mph N/A   Clear
3:53 PM 53.1 °F - 21.0 °F 29% 30.17 in 10.0 mi West 11.5 mph - N/A   Clear
4:53 PM 51.1 °F - 19.9 °F 29% 30.18 in 10.0 mi West 12.7 mph - N/A   Clear
5:53 PM 48.0 °F - 21.0 °F 34% 30.20 in 10.0 mi West 11.5 mph - N/A   Clear
6:53 PM 42.1 °F 35.7 °F 21.9 °F 45% 30.24 in 10.0 mi West 11.5 mph - N/A   Clear
7:53 PM 39.9 °F 33.4 °F 25.0 °F 55% 30.27 in 10.0 mi WSW 10.4 mph - N/A   Clear
8:53 PM 37.0 °F 31.0 °F 24.1 °F 59% 30.30 in 10.0 mi SW 8.1 mph - N/A   Clear
9:53 PM 37.0 °F 31.0 °F 23.0 °F 57% 30.28 in 10.0 mi SW 8.1 mph - N/A   Clear
10:53 PM 37.9 °F 32.7 °F 21.9 °F 53% 30.26 in 10.0 mi SSW 6.9 mph - N/A   Clear
11:53 PM 36.0 °F 29.0 °F 23.0 °F 59% 30.25 in 10.0 mi SW 9.2 mph - N/A   Clear